Weather Roundup
Issued by NWS Chicago, IL

Home | Current Version | Previous Version | Graphics & Text | Print | Product List | Glossary On
Versions: 1 2 3 4 5 6 7 8 9 10 11 12 13 14 15 16 17 18 19 20 21 22 23 24 25 26 27 28 29 30 31 32 33 34 35 36 37 38 39 40 41 42 43 44 45 46 47 48 49 50
000
NZUS59 KLOT 221301
HRRLOT

CHICAGO AREA WEATHER ROUNDUP
NATIONAL WEATHER SERVICE CHICAGO/ROMEOVILLE IL
800 AM CDT WED MAR 22 2017

NOTE: "FAIR" INDICATES FEW OR NO CLOUDS BELOW 12,000 FEET WITH NO
SIGNIFICANT WEATHER AND/OR OBSTRUCTIONS TO VISIBILITY.

* THESE STATIONS ARE NOT UNDER NWS QUALITY CONTROL. THEY ALSO MAY NOT
  REPORT WEATHER SUCH AS PRECIPITATION OR FOG.

ILZ005-006-012>014-019>023-221400-
NORTHEAST ILLINOIS

CITY           SKY/WX    TMP DP  RH WIND       PRES   REMARKS
OHARE          CLOUDY    30  16  56 NE14      30.53R WCI  19
MIDWAY         PTSUNNY   30  17  58 NE17      30.54R WCI  18
AURORA         MOSUNNY   29  16  58 NE12      30.54R WCI  19
LANSING*       CLOUDY    28  19  70 NE14G20   30.54R WCI  17
JOLIET*        MOSUNNY   30  18  60 NE12G17   30.53R WCI  20
WAUKEGAN       PTSUNNY   28  15  58 NE6       30.54R WCI  22
DUPAGE AIRPORT PTSUNNY   27  16  63 NE12      30.52R WCI  17
WHEELING       CLOUDY    29  15  56 NE9       30.55R WCI  20
KANKAKEE*      MOSUNNY   28  17  64 NE14G22   30.54R WCI  17
MORRIS*        MOSUNNY   29  18  63 NE6       30.52R WCI  23
NORTHERLY ISL    N/A     29  19  66 NE16        N/A  WCI  17
$$

WIZ051-052-058>065-066-070>072-221400-
SOUTHEAST WISCONSIN

CITY           SKY/WX    TMP DP  RH WIND       PRES   REMARKS
MILWAUKEE      CLOUDY    26  10  50 N9        30.56R WCI  17
KENOSHA*       CLOUDY    25  13  60 N7        30.55R WCI  17
RACINE*        CLOUDY    28  14  55 NE15      30.57R WCI  16
WAUKESHA       SUNNY     19   7  58 N7        30.56R WCI  10
WEST BEND      SUNNY     21   9  58 N9        30.56R WCI  11
$$

INZ001>003-010>013-019-020-221400-
NORTHWEST INDIANA

CITY           SKY/WX    TMP DP  RH WIND       PRES   REMARKS
GARY*          PTSUNNY   28  16  59 NE15G26   30.55R WCI  17
MICHIGAN CITY* NOT AVBL
RENSSELAER*    NOT AVBL
VALPARAISO     MOSUNNY   24  11  57 NE12G22   30.54R WCI  13
$$

LMZ740>746-221400-
SOUTHERN LAKE MICHIGAN

STATION/POSITION TIME  SKY/WX   TEMP WIND        PRES    VSBY
                                AIR  DIR/SP/G
                 (UTC)          (F)  (DEG/KT/KT) (MB)    (MI)
HARRISON CRIB    1240            29   60/ 15/ 18   N/A
BURNHAM HARBOR   1300            29   60/ 12/ 21   N/A
CALUMET HARBOR   1230            28   40/ 14/ 17 1033.3R
BURNS HARBOR     1240            27   80/ 13/ 24 1034.2R
MICHIGAN CITY    1240            23   60/ 12/ 15   N/A
$$

ABBREVIATIONS USED IN REMARKS
   TC - TEMPERATURE IN CELSIUS
  WCI - WIND CHILL INDEX
   HX - HEAT INDEX
  VSB - VISIBILITY
$$




USA.gov is the U.S. government's official web portal to all federal, state and local government web resources and services.